QPF
0.00 0.00 0.00 0.00 0.00 0.00 0.00 0.00 0.00 0.00 0.00 0.00 0.00 0.00 0.00 0.00 0.00 0.00 0.00 0.00 0.00 0.00 0.00 0.00 0.00 0.00 0.00 0.00 0.00 0.00 0.00 0.00 0.00 0.00 0.00 0.00 0.00 0.00 0.00 0.00 0.00 0.00 0.00 0.00
0.00 0.00 0.00 0.00 0.00 0.00 0.00 0.00 0.00 0.00 0.00 0.00 0.00 0.00 0.00 0.00 0.00 0.00 0.00 0.00 0.00 0.00 0.00 0.00 0.00 0.00 0.00 0.00 0.00 0.00 0.00 0.00 0.00 0.00 0.00 0.00 0.00 0.00 0.00 0.00 0.00 0.00 0.00 0.00
0.00 0.00 0.00 0.00 0.00 0.00 0.00 0.00 0.00 0.00 0.00 0.00 0.00 0.00 0.00 0.00 0.00 0.00 0.00 0.00 0.00 0.00 0.00 0.00 0.00 0.00 0.00 0.00 0.00 0.00 0.00 0.00 0.00 0.00 0.00 0.00 0.00 0.00 0.00 0.00 0.00 0.00 0.00 0.00
0.00 0.00 0.00 0.00 0.00 0.00 0.00 0.00 0.00 0.00 0.00 0.00 0.01 0.00 0.00 0.00 0.00 0.00 0.00 0.00 0.00 0.00 0.00 0.00 0.00 0.00 0.00 0.00 0.00 0.00 0.00 0.00 0.00 0.00 0.00 0.00 0.00 0.00 0.00 0.00 0.00 0.00 0.00 0.00
0.00 0.00 0.00 0.00 0.00 0.00 0.00 0.00 0.00 0.00 0.00 0.01 0.00 0.00 0.00 0.00 0.00 0.00 0.00 0.00 0.00 0.00 0.00 0.00 0.00 0.00 0.00 0.00 0.00 0.00 0.00 0.00 0.00 0.00 0.00 0.00 0.00 0.00 0.00 0.00 0.00 0.00 0.00 0.00
0.00 0.00 0.00 0.00 0.00 0.00 0.00 0.00 0.00 0.00 0.00 0.00 0.01 0.00 0.00 0.00 0.00 0.00 0.00 0.00 0.00 0.00 0.00 0.00 0.00 0.00 0.00 0.00 0.00 0.00 0.00 0.00 0.00 0.00 0.00 0.00 0.00 0.00 0.00 0.00 0.00 0.00 0.00 0.00
0.00 0.00 0.00 0.00 0.00 0.00 0.00 0.00 0.00 0.00 0.00 0.00 0.00 0.00 0.00 0.00 0.00 0.00 0.00 0.00 0.00 0.00 0.00 0.00 0.00 0.00 0.00 0.00 0.00 0.00 0.00 0.00 0.00 0.00 0.00 0.00 0.00 0.00 0.00 0.00 0.00 0.00 0.00 0.00
0.00 0.00 0.00 0.00 0.00 0.00 0.00 0.00 0.00 0.00 0.00 0.00 0.00 0.00 0.00 0.00 0.00 0.00 0.00 0.00 0.00 0.00 0.00 0.00 0.00 0.00 0.00 0.00 0.00 0.00 0.00 0.00 0.00 0.00 0.00 0.00 0.00 0.00 0.00 0.00 0.00 0.00 0.00 0.00
0.00 0.00 0.00 0.00 0.00 0.00 0.00 0.00 0.00 0.00 0.00 0.00 0.00 0.00 0.00 0.00 0.00 0.00 0.00 0.00 0.00 0.00 0.00 0.00 0.00 0.00 0.00 0.00 0.00 0.00 0.00 0.00 0.00 0.00 0.00 0.00 0.00 0.00 0.00 0.00 0.00 0.00 0.00 0.00
0.00 0.00 0.00 0.00 0.00 0.00 0.00 0.00 0.00 0.00 0.00 0.00 0.00 0.00 0.00 0.00 0.00 0.00 0.00 0.00 0.00 0.00 0.00 0.00 0.00 0.00 0.00 0.00 0.00 0.00 0.00 0.00 0.00 0.00 0.00 0.00 0.00 0.00 0.00 0.00 0.00 0.00 0.00 0.00
0.00 0.00 0.00 0.00 0.00 0.00 0.00 0.00 0.00 0.00 0.00 0.00 0.00 0.00 0.00 0.00 0.00 0.00 0.00 0.00 0.00 0.00 0.00 0.00 0.00 0.01 0.01 0.00 0.00 0.00 0.00 0.00 0.00 0.00 0.00 0.00 0.00 0.00 0.00 0.00 0.00 0.00 0.00 0.00
0.00 0.00 0.00 0.00 0.00 0.00 0.00 0.00 0.00 0.00 0.00 0.00 0.00 0.00 0.00 0.00 0.00 0.00 0.00 0.00 0.00 0.00 0.00 0.00 0.00 0.00 0.00 0.00 0.00 0.00 0.00 0.00 0.00 0.00 0.00 0.00 0.00 0.00 0.00 0.00 0.00 0.00 0.00 0.00
0.00 0.00 0.00 0.00 0.00 0.00 0.00 0.00 0.00 0.00 0.00 0.00 0.00 0.00 0.00 0.00 0.00 0.00 0.00 0.00 0.00 0.00 0.00 0.00 0.00 0.00 0.00 0.00 0.00 0.00 0.00 0.00 0.00 0.00 0.00 0.00 0.00 0.00 0.00 0.00 0.00 0.00 0.00 0.00
0.00 0.00 0.00 0.00 0.00 0.00 0.00 0.00 0.00 0.00 0.00 0.00 0.00 0.00 0.00 0.00 0.00 0.00 0.00 0.00 0.00 0.00 0.00 0.00 0.00 0.00 0.00 0.00 0.00 0.00 0.00 0.00 0.00 0.00 0.00 0.00 0.00 0.00 0.00 0.00 0.00 0.00 0.00 0.00
0.00 0.00 0.00 0.00 0.00 0.00 0.00 0.00 0.00 0.00 0.00 0.00 0.00 0.00 0.00 0.00 0.01 0.00 0.00 0.00 0.00 0.00 0.00 0.00 0.00 0.00 0.00 0.00 0.00 0.00 0.00 0.00 0.00 0.00 0.00 0.00 0.00 0.00 0.00 0.00 0.00 0.00 0.00 0.00
0.00 0.00 0.00 0.00 0.00 0.00 0.00 0.00 0.00 0.00 0.00 0.00 0.00 0.00 0.00 0.00 0.01 0.01 0.00 0.01 0.01 0.00 0.00 0.00 0.00 0.00 0.00 0.00 0.00 0.00 0.00 0.00 0.00 0.00 0.00 0.00 0.00 0.00 0.00 0.00 0.00 0.00 0.00 0.00
0.00 0.00 0.00 0.00 0.00 0.00 0.00 0.00 0.00 0.00 0.00 0.00 0.00 0.00 0.00 0.00 0.00 0.00 0.00 0.01 0.01 0.00 0.00 0.00 0.00 0.00 0.00 0.00 0.00 0.00 0.00 0.00 0.00 0.00 0.00 0.00 0.00 0.00 0.00 0.00 0.00 0.00 0.00 0.00
0.00 0.00 0.00 0.00 0.00 0.00 0.00 0.00 0.00 0.00 0.00 0.00 0.00 0.00 0.00 0.00 0.00 0.00 0.01 0.00 0.00 0.00 0.00 0.00 0.00 0.00 0.00 0.00 0.00 0.00 0.00 0.00 0.00 0.00 0.00 0.00 0.00 0.00 0.00 0.00 0.00 0.00 0.00 0.00
0.00 0.00 0.00 0.00 0.00 0.00 0.00 0.00 0.00 0.00 0.00 0.00 0.00 0.00 0.00 0.00 0.00 0.01 0.06 0.00 0.00 0.00 0.00 0.00 0.00 0.00 0.00 0.00 0.00 0.00 0.00 0.00 0.00 0.00 0.00 0.00 0.00 0.00 0.00 0.00 0.00 0.00 0.00 0.00
0.00 0.00 0.00 0.00 0.00 0.00 0.00 0.00 0.00 0.00 0.00 0.01 0.00 0.00 0.00 0.00 0.00 0.00 0.01 0.00 0.00 0.00 0.00 0.00 0.00 0.00 0.00 0.00 0.00 0.00 0.00 0.00 0.00 0.00 0.00 0.00 0.00 0.00 0.00 0.00 0.00 0.00 0.00 0.00
0.00 0.00 0.00 0.00 0.00 0.00 0.01 0.01 0.00 0.00 0.00 0.00 0.00 0.00 0.00 0.00 0.00 0.00 0.00 0.00 0.00 0.00 0.00 0.00 0.00 0.00 0.00 0.00 0.00 0.00 0.00 0.00 0.00 0.00 0.00 0.00 0.00 0.00 0.00 0.00 0.00 0.00 0.00 0.00
0.00 0.00 0.00 0.00 0.00 0.00 0.04 0.02 0.00 0.00 0.00 0.00 0.00 0.00 0.00 0.00 0.00 0.00 0.00 0.00 0.00 0.00 0.00 0.00 0.00 0.00 0.00 0.00 0.00 0.00 0.00 0.00 0.00 0.00 0.00 0.00 0.00 0.00 0.00 0.00 0.00 0.00 0.00 0.00
0.00 0.00 0.00 0.00 0.00 0.00 0.01 0.00 0.00 0.00 0.00 0.00 0.00 0.00 0.00 0.00 0.00 0.00 0.00 0.00 0.00 0.00 0.00 0.00 0.00 0.00 0.00 0.00 0.00 0.00 0.00 0.00 0.00 0.00 0.00 0.00 0.00 0.00 0.01 0.02 0.02 0.02 0.08 0.11
0.00 0.01 0.00 0.00 0.00 0.00 0.00 0.00 0.00 0.00 0.00 0.00 0.00 0.00 0.00 0.00 0.00 0.00 0.00 0.00 0.00 0.00 0.00 0.00 0.00 0.00 0.00 0.00 0.00 0.00 0.00 0.00 0.00 0.00 0.00 0.00 0.02 0.01 0.03 0.04 0.05 0.14 0.14 0.13
0.00 0.00 0.00 0.00 0.00 0.00 0.00 0.01 0.00 0.00 0.00 0.00 0.00 0.00 0.00 0.00 0.00 0.00 0.00 0.00 0.00 0.00 0.00 0.00 0.00 0.00 0.00 0.00 0.01 0.03 0.00 0.00 0.00 0.00 0.01 0.01 0.02 0.02 0.02 0.03 0.04 0.06 0.04 0.05
0.00 0.00 0.00 0.00 0.00 0.00 0.00 0.00 0.00 0.00 0.00 0.00 0.00 0.00 0.00 0.00 0.00 0.00 0.00 0.00 0.00 0.00 0.00 0.00 0.00 0.00 0.00 0.00 0.01 0.01 0.00 0.00 0.00 0.00 0.01 0.00 0.00 0.01 0.01 0.00 0.00 0.00 0.00 0.00
MSLP
1004.64 1005.12 1005.51 1005.93 1007.21 1006.17 1005.82 1006.08 1007.00 1006.05 1006.45 1006.70 1006.59 1007.37 1008.98 1010.18 1010.81 1010.97 1011.51 1012.33 1012.60 1013.35 1014.66 1015.86 1016.40 1017.48 1018.50 1019.10 1019.76 1020.15 1020.37 1020.44 1020.15 1020.00 1019.79 1019.62 1019.50 1019.34 1019.28 1019.45 1019.73 1020.01 1020.09 1020.04
1004.04 1003.96 1004.24 1004.37 1004.63 1004.85 1005.46 1006.31 1006.11 1005.73 1006.20 1006.60 1006.37 1006.87 1007.69 1008.86 1009.97 1010.56 1011.02 1011.45 1011.78 1012.90 1014.19 1015.41 1016.16 1016.77 1017.67 1018.66 1019.40 1020.04 1020.40 1020.63 1020.45 1020.13 1020.03 1019.99 1019.76 1019.39 1019.23 1019.28 1019.70 1019.91 1020.21 1020.20
1004.15 1003.81 1003.72 1004.14 1004.07 1005.40 1005.68 1006.01 1005.85 1005.80 1006.03 1006.24 1006.91 1006.23 1006.62 1007.79 1008.90 1009.56 1010.10 1010.75 1011.11 1012.03 1013.29 1014.23 1015.04 1016.12 1016.88 1018.01 1018.96 1019.77 1020.30 1020.53 1020.66 1020.45 1020.06 1019.84 1019.25 1019.41 1019.44 1019.54 1019.77 1019.79 1020.04 1020.16
1004.28 1003.51 1003.80 1003.98 1004.55 1004.88 1005.20 1005.72 1005.74 1006.02 1006.61 1009.00 1009.38 1007.11 1006.62 1007.53 1008.37 1008.68 1008.97 1009.38 1010.22 1011.11 1012.25 1013.39 1014.33 1015.45 1016.29 1017.41 1018.56 1019.30 1019.93 1020.31 1020.50 1020.56 1020.24 1020.38 1020.02 1019.80 1019.67 1019.73 1019.86 1019.60 1019.72 1019.92
1003.99 1003.53 1003.56 1003.79 1004.81 1004.72 1004.93 1005.37 1006.58 1007.72 1008.74 1010.64 1011.41 1010.44 1006.67 1007.42 1007.50 1007.52 1007.85 1008.34 1008.99 1009.84 1011.06 1012.25 1013.28 1014.06 1015.29 1016.68 1017.85 1018.87 1019.66 1020.11 1020.39 1020.48 1020.54 1020.42 1020.29 1020.24 1020.12 1020.13 1019.90 1019.59 1019.46 1019.89
1004.36 1004.20 1004.49 1004.33 1004.52 1004.58 1005.01 1005.84 1006.88 1008.18 1009.26 1011.64 1010.88 1010.44 1006.86 1006.53 1005.91 1005.99 1006.53 1007.42 1008.15 1009.13 1010.05 1011.34 1012.31 1013.42 1014.69 1016.10 1017.01 1018.32 1019.11 1019.66 1020.04 1020.29 1020.43 1020.39 1020.44 1020.45 1020.33 1020.22 1020.17 1019.97 1019.68 1019.86
1004.13 1004.29 1004.09 1004.80 1004.57 1004.68 1005.22 1005.79 1006.69 1008.55 1008.16 1009.67 1008.03 1007.13 1005.99 1005.80 1005.60 1005.64 1005.75 1006.50 1007.52 1008.67 1009.58 1010.81 1012.04 1013.10 1013.96 1015.59 1016.44 1017.47 1018.38 1019.06 1019.60 1019.79 1020.01 1020.29 1020.43 1020.39 1020.18 1019.95 1020.05 1020.22 1019.87 1019.78
1004.27 1004.63 1005.00 1004.90 1004.79 1004.85 1005.83 1006.51 1007.72 1007.52 1007.56 1007.76 1007.34 1007.27 1006.90 1005.99 1005.89 1005.87 1005.98 1006.06 1006.81 1007.88 1008.58 1010.06 1011.44 1012.72 1013.71 1014.82 1015.91 1016.78 1017.73 1018.35 1018.97 1019.34 1019.64 1019.97 1020.21 1020.18 1020.04 1020.18 1020.22 1020.24 1020.11 1019.78
1004.84 1005.41 1005.51 1004.90 1004.75 1005.08 1006.16 1006.46 1006.62 1007.19 1007.76 1007.51 1007.02 1007.23 1007.38 1006.00 1005.68 1005.72 1006.05 1006.27 1006.32 1007.16 1008.10 1009.37 1010.81 1012.07 1013.03 1014.37 1015.30 1016.24 1016.83 1017.56 1018.28 1018.85 1019.31 1019.58 1019.72 1020.00 1020.03 1020.10 1020.19 1020.19 1020.09 1019.90
1004.70 1005.46 1005.94 1005.70 1005.36 1005.12 1005.30 1006.18 1007.13 1008.65 1009.76 1009.84 1008.30 1007.57 1007.31 1006.79 1005.83 1006.30 1006.14 1006.60 1006.56 1006.79 1007.74 1008.69 1010.29 1011.54 1012.86 1013.88 1014.83 1015.88 1016.36 1017.01 1017.68 1018.29 1018.71 1019.00 1019.26 1019.54 1019.66 1019.80 1019.87 1019.90 1019.86 1019.74
1004.61 1005.13 1005.51 1005.99 1005.57 1005.73 1007.16 1007.95 1008.93 1009.92 1010.27 1009.80 1008.36 1008.11 1007.54 1007.65 1006.91 1007.67 1006.85 1006.48 1006.69 1006.75 1007.26 1008.12 1009.72 1011.27 1012.32 1013.25 1014.25 1015.37 1015.84 1016.33 1017.02 1017.58 1018.07 1018.46 1018.89 1019.18 1019.34 1019.46 1019.43 1019.51 1019.51 1019.46
1004.94 1005.63 1005.65 1005.28 1005.13 1005.64 1006.72 1007.19 1008.40 1009.44 1010.64 1010.63 1008.98 1007.83 1007.60 1007.55 1008.45 1009.30 1008.62 1007.09 1006.30 1006.27 1006.56 1007.45 1009.08 1010.85 1011.97 1012.66 1013.51 1014.65 1015.28 1015.66 1015.98 1016.83 1017.47 1018.03 1018.50 1018.77 1019.00 1019.13 1019.09 1019.08 1019.05 1018.90
1005.96 1006.00 1006.08 1005.83 1005.64 1006.53 1007.15 1007.42 1008.33 1009.46 1010.35 1011.55 1009.95 1007.41 1006.88 1008.55 1009.79 1011.22 1010.63 1009.61 1006.79 1006.52 1006.91 1007.47 1008.67 1010.32 1011.61 1012.44 1013.36 1014.23 1015.04 1015.40 1015.72 1016.23 1016.82 1017.38 1017.86 1018.20 1018.42 1018.58 1018.70 1018.74 1018.72 1018.61
1006.79 1006.79 1006.53 1006.17 1005.67 1005.69 1005.99 1006.45 1006.87 1007.83 1009.09 1009.27 1007.01 1006.85 1007.71 1009.86 1011.11 1011.65 1011.43 1008.74 1006.84 1006.37 1007.10 1007.66 1008.37 1009.54 1010.86 1012.04 1013.06 1014.04 1014.73 1015.17 1015.61 1016.17 1016.53 1016.92 1017.29 1017.58 1017.84 1018.10 1018.27 1018.38 1018.40 1018.29
1007.09 1007.08 1006.88 1006.24 1005.59 1004.88 1004.89 1005.15 1005.48 1005.72 1006.12 1007.16 1006.11 1006.45 1008.21 1009.29 1009.65 1010.28 1010.10 1008.19 1005.30 1006.24 1006.65 1007.60 1008.32 1008.91 1010.22 1011.74 1012.88 1013.79 1014.62 1015.35 1015.89 1016.11 1016.35 1016.59 1016.98 1017.23 1017.43 1017.75 1017.92 1018.02 1018.02 1017.94
1007.11 1007.34 1006.97 1006.16 1005.53 1005.28 1005.22 1004.97 1004.66 1004.48 1005.06 1005.55 1005.66 1005.77 1006.23 1007.99 1008.27 1009.87 1011.65 1012.38 1010.05 1007.85 1007.48 1007.86 1008.21 1009.02 1010.17 1011.60 1012.67 1013.79 1014.69 1015.43 1015.83 1016.15 1016.31 1016.36 1016.41 1016.64 1016.92 1017.17 1017.41 1017.52 1017.56 1017.49
1006.85 1007.16 1007.07 1006.32 1005.79 1005.63 1005.37 1004.95 1004.69 1004.89 1005.44 1005.57 1005.60 1005.93 1006.19 1007.15 1008.72 1009.48 1010.13 1010.09 1009.52 1008.80 1008.60 1008.36 1008.36 1009.23 1010.36 1011.37 1012.48 1013.54 1014.45 1015.06 1015.59 1016.01 1016.18 1016.16 1016.09 1016.22 1016.40 1016.59 1016.79 1016.89 1016.91 1016.84
1006.99 1007.30 1007.36 1006.93 1006.35 1005.66 1004.72 1004.97 1005.37 1005.81 1005.94 1005.90 1005.75 1006.13 1006.31 1007.26 1008.65 1009.14 1009.29 1009.28 1009.27 1009.21 1009.14 1009.20 1009.50 1010.51 1011.29 1011.92 1012.72 1013.59 1014.20 1014.88 1015.43 1015.75 1015.76 1015.86 1015.77 1015.72 1015.82 1016.02 1016.19 1016.25 1016.28 1016.23
1007.11 1007.67 1007.65 1007.50 1007.06 1007.04 1006.74 1006.75 1007.01 1006.41 1006.69 1006.37 1006.60 1006.72 1006.79 1006.94 1007.85 1009.18 1009.31 1009.53 1009.87 1009.94 1010.05 1010.51 1010.84 1011.40 1012.00 1012.52 1012.97 1013.68 1014.31 1014.73 1015.00 1015.24 1015.29 1015.23 1015.26 1015.38 1015.50 1015.67 1015.90 1015.88 1015.72 1015.45
1007.02 1007.96 1008.84 1008.58 1008.34 1008.56 1008.89 1008.94 1008.52 1010.14 1007.61 1007.25 1007.03 1007.04 1007.16 1007.56 1007.92 1009.28 1009.60 1010.06 1010.45 1010.60 1010.78 1011.05 1011.43 1012.05 1012.59 1013.04 1013.50 1014.12 1014.42 1014.59 1014.62 1014.66 1014.71 1014.74 1014.91 1015.05 1015.40 1015.46 1015.23 1014.95 1014.96 1014.87
1009.14 1010.09 1009.25 1009.36 1009.59 1009.26 1011.02 1011.16 1010.76 1011.65 1007.85 1007.60 1007.29 1007.16 1007.57 1008.06 1009.07 1009.58 1009.94 1010.38 1010.73 1011.00 1011.22 1011.52 1011.89 1012.44 1012.96 1013.50 1014.04 1014.48 1014.72 1014.72 1014.66 1014.54 1014.48 1014.54 1014.62 1014.74 1014.84 1014.68 1014.51 1014.51 1014.40 1014.16
1008.91 1009.37 1010.02 1010.98 1012.16 1011.61 1011.64 1010.77 1010.18 1010.29 1009.27 1008.13 1007.60 1007.56 1007.74 1008.15 1008.76 1009.23 1009.75 1010.52 1011.12 1011.45 1011.70 1011.85 1012.31 1013.02 1013.50 1013.92 1014.32 1014.42 1014.54 1014.60 1014.60 1014.61 1014.62 1014.58 1014.42 1014.39 1014.26 1014.36 1014.33 1014.10 1013.79 1013.48
1011.53 1011.01 1010.97 1009.59 1009.68 1010.07 1009.65 1009.81 1009.17 1008.96 1008.62 1008.34 1008.23 1008.15 1008.16 1008.23 1008.39 1008.79 1009.31 1010.02 1010.72 1011.32 1011.90 1012.11 1012.72 1013.44 1013.98 1014.46 1014.60 1014.70 1014.56 1014.45 1014.49 1014.76 1014.54 1014.21 1013.98 1014.06 1013.94 1014.05 1013.91 1013.57 1013.32 1013.13
1012.25 1010.97 1011.28 1010.33 1009.54 1009.68 1009.85 1009.36 1009.06 1007.62 1008.37 1008.41 1008.39 1008.66 1008.69 1008.73 1009.00 1009.26 1009.42 1009.79 1010.49 1011.17 1011.89 1012.36 1012.99 1013.63 1014.30 1014.90 1016.14 1016.83 1015.26 1014.90 1014.93 1015.17 1014.69 1014.31 1014.13 1013.96 1013.87 1013.79 1013.61 1013.44 1013.06 1012.74
1008.22 1009.97 1010.45 1009.94 1008.61 1008.65 1010.70 1009.66 1009.56 1006.37 1008.41 1008.39 1008.58 1008.96 1009.08 1009.22 1009.67 1009.92 1010.16 1010.10 1010.65 1011.15 1011.89 1012.55 1013.30 1014.01 1015.30 1015.87 1015.97 1016.62 1015.92 1015.70 1015.67 1015.20 1014.84 1014.56 1014.32 1014.22 1013.90 1013.56 1013.29 1013.00 1012.54 1012.34
1009.76 1009.36 1009.91 1009.28 1009.06 1008.97 1010.16 1009.91 1010.22 1008.39 1008.85 1008.58 1009.08 1009.61 1009.77 1009.99 1010.36 1010.68 1010.84 1011.44 1011.67 1011.98 1012.93 1013.79 1014.51 1015.10 1015.85 1016.20 1016.55 1016.87 1016.68 1016.38 1015.97 1015.59 1015.39 1015.17 1014.87 1014.58 1014.22 1013.79 1013.14 1012.90 1012.31 1011.73
Thickness
5855 5831 5821 5839 5825 5848 5848 5830 5809 5831 5836 5822 5821 5813 5800 5798 5793 5788 5782 5777 5776 5771 5763 5753 5748 5738 5727 5719 5709 5702 5695 5691 5689 5685 5682 5679 5675 5673 5670 5663 5655 5649 5643 5638
5853 5836 5857 5866 5864 5851 5831 5813 5802 5832 5837 5825 5823 5815 5814 5807 5797 5793 5787 5783 5782 5773 5763 5754 5748 5742 5732 5720 5710 5700 5694 5688 5685 5684 5679 5674 5671 5670 5666 5662 5653 5646 5638 5633
5836 5851 5869 5858 5852 5825 5825 5816 5818 5822 5833 5835 5820 5812 5816 5814 5807 5802 5798 5793 5789 5777 5765 5760 5754 5744 5737 5724 5712 5702 5693 5687 5682 5679 5677 5674 5675 5670 5664 5658 5651 5644 5637 5631
5845 5871 5856 5850 5836 5836 5811 5836 5836 5831 5815 5746 5781 5785 5808 5807 5799 5800 5799 5797 5790 5784 5775 5765 5757 5745 5738 5728 5716 5706 5696 5690 5683 5677 5675 5667 5663 5659 5659 5654 5648 5643 5636 5630
5841 5855 5851 5842 5828 5849 5831 5845 5821 5810 5795 5751 5736 5746 5804 5805 5790 5798 5804 5804 5801 5795 5784 5772 5762 5757 5748 5733 5720 5708 5697 5689 5682 5676 5671 5665 5661 5657 5653 5648 5645 5642 5637 5628
5847 5869 5855 5849 5853 5855 5854 5830 5816 5802 5788 5714 5741 5750 5787 5789 5810 5814 5812 5809 5805 5797 5791 5778 5771 5761 5748 5735 5725 5710 5699 5690 5683 5676 5670 5664 5658 5653 5649 5645 5639 5636 5633 5627
5842 5843 5864 5858 5838 5849 5838 5818 5784 5749 5771 5740 5799 5801 5804 5821 5826 5823 5818 5812 5809 5801 5790 5780 5767 5757 5749 5734 5724 5715 5702 5692 5684 5678 5671 5663 5656 5651 5648 5645 5639 5631 5629 5624
5815 5800 5832 5852 5841 5829 5821 5813 5771 5750 5767 5784 5809 5773 5786 5824 5829 5828 5827 5823 5812 5803 5796 5782 5772 5761 5751 5738 5726 5716 5703 5694 5685 5678 5671 5663 5655 5650 5647 5641 5635 5629 5624 5622
5808 5795 5835 5848 5855 5847 5814 5804 5828 5799 5805 5792 5800 5786 5798 5821 5818 5820 5815 5816 5813 5803 5797 5782 5774 5761 5751 5738 5727 5717 5707 5698 5687 5678 5670 5663 5657 5648 5642 5637 5631 5627 5622 5618
5833 5792 5818 5830 5848 5852 5837 5838 5792 5781 5728 5726 5766 5780 5766 5794 5808 5808 5806 5805 5808 5808 5798 5791 5773 5763 5748 5741 5730 5716 5709 5698 5689 5680 5672 5665 5657 5649 5643 5637 5631 5626 5621 5616
5845 5824 5816 5823 5817 5810 5788 5781 5776 5772 5767 5747 5761 5771 5803 5798 5799 5798 5804 5809 5805 5803 5797 5788 5775 5763 5752 5744 5732 5716 5707 5699 5690 5682 5673 5664 5655 5647 5641 5635 5631 5626 5621 5615
5843 5819 5797 5815 5842 5836 5816 5807 5796 5763 5751 5759 5781 5781 5810 5807 5797 5777 5784 5807 5813 5808 5802 5791 5774 5764 5751 5742 5730 5717 5706 5698 5692 5682 5673 5663 5654 5647 5639 5633 5629 5626 5621 5617
5827 5807 5781 5794 5821 5814 5794 5805 5799 5778 5742 5718 5728 5781 5817 5796 5780 5757 5750 5768 5803 5803 5796 5789 5773 5759 5750 5738 5727 5715 5705 5697 5691 5682 5673 5665 5656 5647 5640 5634 5628 5624 5620 5616
5822 5805 5792 5777 5797 5816 5796 5806 5811 5793 5758 5753 5797 5799 5795 5767 5752 5748 5740 5771 5797 5793 5787 5782 5774 5758 5749 5739 5726 5713 5703 5696 5688 5679 5671 5662 5654 5647 5640 5634 5627 5622 5618 5615
5814 5786 5799 5809 5819 5827 5812 5814 5814 5804 5802 5773 5799 5800 5774 5770 5774 5768 5759 5788 5788 5788 5782 5773 5768 5762 5747 5734 5723 5712 5701 5691 5681 5674 5667 5660 5652 5645 5639 5631 5625 5620 5617 5613
5814 5784 5798 5797 5817 5815 5801 5813 5821 5824 5814 5806 5805 5801 5814 5788 5787 5769 5739 5694 5749 5773 5776 5770 5765 5759 5746 5730 5720 5708 5697 5685 5679 5669 5661 5657 5652 5645 5638 5631 5625 5620 5615 5611
5802 5793 5786 5777 5808 5803 5782 5801 5813 5812 5812 5804 5784 5797 5811 5799 5781 5777 5763 5761 5762 5766 5762 5764 5761 5754 5744 5732 5721 5705 5695 5687 5676 5666 5658 5653 5649 5642 5637 5631 5625 5620 5615 5612
5797 5792 5789 5776 5793 5759 5816 5830 5818 5802 5806 5806 5806 5801 5802 5787 5779 5778 5779 5770 5765 5761 5756 5753 5751 5741 5736 5727 5716 5705 5695 5684 5673 5663 5658 5651 5646 5642 5638 5631 5625 5620 5615 5610
5812 5792 5777 5768 5770 5783 5798 5797 5791 5790 5783 5803 5792 5792 5796 5796 5783 5765 5772 5770 5760 5755 5752 5746 5742 5734 5727 5719 5711 5699 5688 5679 5671 5663 5657 5653 5647 5641 5636 5629 5621 5616 5612 5609
5808 5799 5775 5773 5756 5749 5780 5777 5773 5746 5760 5788 5786 5787 5784 5783 5754 5751 5765 5761 5754 5751 5746 5740 5735 5727 5718 5711 5702 5689 5681 5674 5668 5664 5658 5654 5646 5638 5630 5625 5621 5618 5612 5607
5751 5736 5760 5759 5759 5783 5759 5756 5760 5719 5733 5786 5788 5784 5777 5764 5759 5761 5762 5754 5752 5746 5740 5736 5728 5717 5709 5702 5692 5680 5673 5667 5664 5661 5657 5650 5643 5638 5631 5627 5622 5616 5611 5608
5774 5766 5752 5711 5690 5721 5752 5760 5740 5751 5773 5783 5783 5780 5774 5771 5767 5763 5758 5750 5742 5736 5731 5729 5719 5709 5702 5694 5683 5676 5670 5667 5664 5658 5650 5645 5641 5636 5631 5624 5619 5615 5610 5607
5737 5747 5747 5768 5757 5764 5770 5767 5778 5782 5777 5778 5776 5776 5774 5769 5766 5762 5752 5746 5742 5732 5725 5721 5710 5701 5692 5683 5677 5668 5666 5664 5659 5649 5644 5644 5640 5633 5628 5620 5614 5613 5609 5604
5739 5757 5744 5748 5768 5761 5760 5770 5774 5787 5778 5777 5777 5770 5767 5759 5759 5756 5753 5742 5736 5728 5718 5714 5702 5692 5680 5673 5651 5632 5652 5657 5650 5638 5638 5637 5632 5628 5623 5618 5613 5608 5605 5602
5784 5763 5736 5751 5775 5784 5745 5748 5721 5774 5773 5771 5769 5765 5760 5756 5749 5747 5742 5740 5730 5725 5713 5706 5695 5684 5668 5655 5648 5637 5642 5640 5634 5634 5633 5629 5625 5620 5618 5616 5612 5608 5606 5599
5774 5764 5755 5752 5763 5764 5746 5753 5718 5761 5762 5765 5757 5749 5750 5746 5740 5737 5732 5726 5719 5712 5701 5687 5681 5670 5661 5653 5645 5636 5633 5631 5629 5626 5622 5618 5616 5614 5610 5608 5608 5606 5602 5598